Hourly Data Report for September 24, 2016

SHEARWATER RCS
NOVA SCOTIA

44°37'47.000" N
63°30'48.000" W
24.00 m
8205092
71264
AAW

Download Data

Hourly Data (September 2016)
Hourly Data Report for September 24, 2016
TIME Temp Definition
°C
Dew Point Definition
°C
Rel Hum Definition
%
Wind Dir Definition
10's deg

Wind Spd Definition
km/h
Visibility Definition
km
Stn Press Definition
kPa
Hmdx Definition


Wind Chill Definition


Weather Definition


00:00 11.1 7.9 81 34 17   101.03     LegendNANA
01:00 10.6 7.3 80 34 15   101.02     LegendNANA
02:00 10.0 7.1 82 34 12   101.05     LegendNANA
03:00 9.9 7.4 85 32 8   101.06     LegendNANA
04:00 9.0 6.7 86 31 7   101.13     LegendNANA
05:00 8.0 6.1 88 32 6   101.16     LegendNANA
06:00 8.3 6.9 91 33 6   101.18     LegendNANA
07:00 9.3 7.8 90 31 4   101.19     LegendNANA
08:00 11.0 7.8 81 30 11   101.20     LegendNANA
09:00 12.3 7.8 74 30 11   101.20     LegendNANA
10:00 13.8 5.0 55 34 17   101.09     LegendNANA
11:00 14.6 4.6 51 32 14   101.03     LegendNANA
12:00 15.2 4.3 48 33 15   100.98     LegendNANA
13:00 15.9 3.4 43 29 11   100.94     LegendNANA
14:00 17.1 2.1 37 30 13   100.89     LegendNANA
15:00 15.5 3.1 43 30 17   100.86     LegendNANA
16:00 14.3 4.6 52 30 13   100.85     LegendNANA
17:00 13.3 3.4 51 32 16   100.88     LegendNANA
18:00 12.0 2.2 51 32 17   100.93     LegendNANA
19:00 10.7 3.2 60 32 12   100.95     LegendNANA
20:00 9.7 3.1 63 32 9   100.96     LegendNANA
21:00 8.8 3.2 68 34 5   100.96     LegendNANA
22:00 8.6 3.3 69 30 8   100.93     LegendNANA
23:00 7.6 3.5 75 32 7   100.89     LegendNANA

Notes on Data Quality.

Legend

  • E = Estimated
  • M = Missing
  • NA = Not Available*
  • [empty] = Indicates an unobserved value
Date modified: